TimeEDT,TemperatureF,Dew PointF,Humidity,Sea Level PressureIn,VisibilityMPH,Wind Direction,Wind SpeedMPH,Gust SpeedMPH,PrecipitationIn,Events,Conditions,WindDirDegrees,DateUTC
12:53 AM,82.9,75.9,79,29.84,10.0,SSW,3.5,-,N/A,,Clear,210,2013-09-23 04:53:00
1:53 AM,82.9,78.1,85,29.83,10.0,SSE,8.1,-,N/A,,Clear,160,2013-09-23 05:53:00
2:53 AM,82.0,77.0,85,29.83,10.0,SSE,10.4,-,N/A,,Partly Cloudy,150,2013-09-23 06:53:00
3:53 AM,81.0,77.0,88,29.82,10.0,SSE,12.7,-,N/A,,Clear,160,2013-09-23 07:53:00
4:53 AM,81.0,77.0,88,29.84,10.0,SSE,11.5,-,N/A,,Clear,150,2013-09-23 08:53:00
5:53 AM,81.0,77.0,88,29.85,10.0,SE,10.4,-,N/A,,Clear,140,2013-09-23 09:53:00
6:50 AM,80.6,77.0,89,29.86,10.0,SE,11.5,-,N/A,,Mostly Cloudy,130,2013-09-23 10:50:00
6:53 AM,80.1,78.1,94,29.86,10.0,SE,11.5,-,N/A,,Mostly Cloudy,130,2013-09-23 10:53:00
7:53 AM,80.1,78.1,94,29.86,5.0,SE,13.8,-,0.02,Rain,Light Rain,140,2013-09-23 11:53:00
8:53 AM,81.0,78.1,91,29.88,10.0,SE,15.0,-,0.00,,Partly Cloudy,140,2013-09-23 12:53:00
9:53 AM,80.1,78.1,94,29.90,6.0,South,11.5,-,0.00,Rain,Light Rain,170,2013-09-23 13:53:00
10:53 AM,82.9,79.0,88,29.89,10.0,SE,10.4,-,0.00,,Scattered Clouds,140,2013-09-23 14:53:00
11:29 AM,82.0,77.0,85,29.93,5.0,SSW,16.1,21.9,0.03,Rain-Thunderstorm,Light Rain,200,2013-09-23 15:29:00
11:32 AM,81.0,77.0,88,29.94,1.5,WSW,13.8,-,0.09,Rain-Thunderstorm,Heavy Rain,240,2013-09-23 15:32:00
11:36 AM,79.0,75.9,90,29.93,0.5,West,17.3,24.2,0.23,Fog-Rain-Thunderstorm,Heavy Rain,260,2013-09-23 15:36:00
11:38 AM,78.1,75.9,93,29.93,0.5,WSW,18.4,24.2,0.31,Fog-Rain,Heavy Rain,250,2013-09-23 15:38:00
11:43 AM,77.0,75.0,94,29.93,0.2,WSW,13.8,24.2,0.48,Fog-Rain,Heavy Rain,250,2013-09-23 15:43:00
11:48 AM,77.0,75.2,94,29.93,0.5,WSW,8.1,20.7,0.58,Fog-Rain,Heavy Rain,240,2013-09-23 15:48:00
11:53 AM,77.0,75.0,94,29.94,0.5,SW,9.2,-,0.65,Fog-Rain,Heavy Rain,230,2013-09-23 15:53:00
12:09 PM,77.0,75.9,96,29.93,1.5,South,9.2,-,0.11,Rain,Rain,190,2013-09-23 16:09:00
12:11 PM,77.0,75.9,96,29.93,2.0,SSW,9.2,-,0.11,Rain,Rain,200,2013-09-23 16:11:00
12:37 PM,78.1,75.9,93,29.92,8.0,South,10.4,-,0.16,Rain,Light Rain,170,2013-09-23 16:37:00
12:44 PM,78.1,75.9,93,29.92,9.0,SSE,6.9,-,0.16,Rain,Light Rain,160,2013-09-23 16:44:00
12:53 PM,79.0,77.0,94,29.92,9.0,South,9.2,-,0.16,Rain,Light Rain,170,2013-09-23 16:53:00
1:53 PM,80.1,77.0,90,29.91,10.0,SSE,6.9,-,0.00,Rain,Light Rain,150,2013-09-23 17:53:00
2:51 PM,80.6,77.0,89,29.89,1.8,SSE,8.1,-,0.05,Rain,Heavy Rain,150,2013-09-23 18:51:00
2:53 PM,80.1,77.0,90,29.89,1.8,SSE,6.9,-,0.05,Rain,Light Rain,150,2013-09-23 18:53:00
2:57 PM,80.1,77.0,90,29.89,2.5,SE,6.9,-,0.00,Rain,Light Rain,140,2013-09-23 18:57:00
2:59 PM,80.1,78.1,94,29.89,4.0,SE,8.1,-,0.00,Rain,Light Rain,130,2013-09-23 18:59:00
3:17 PM,80.1,78.1,94,29.89,10.0,South,4.6,-,0.01,,Overcast,180,2013-09-23 19:17:00
3:45 PM,80.1,78.1,94,29.89,10.0,South,6.9,-,0.01,,Overcast,170,2013-09-23 19:45:00
3:53 PM,80.1,77.0,90,29.89,10.0,South,6.9,-,0.01,,Mostly Cloudy,190,2013-09-23 19:53:00
4:02 PM,80.1,75.0,85,29.89,10.0,SSW,5.8,-,N/A,,Overcast,210,2013-09-23 20:02:00
4:36 PM,80.1,77.0,90,29.89,10.0,South,11.5,-,N/A,,Mostly Cloudy,180,2013-09-23 20:36:00
4:53 PM,80.1,77.0,90,29.89,10.0,South,9.2,-,N/A,,Mostly Cloudy,170,2013-09-23 20:53:00
5:53 PM,80.1,75.9,87,29.91,6.0,SSE,9.2,-,0.02,Rain,Light Rain,160,2013-09-23 21:53:00
6:09 PM,79.0,77.0,94,29.91,2.5,South,13.8,-,0.05,Rain,Rain,190,2013-09-23 22:09:00
6:15 PM,79.0,77.0,94,29.91,1.8,SSW,12.7,-,0.08,Rain,Heavy Rain,200,2013-09-23 22:15:00
6:31 PM,78.1,77.0,96,29.91,2.0,South,13.8,-,0.18,Rain,Rain,190,2013-09-23 22:31:00
6:34 PM,78.1,77.0,96,29.91,3.0,South,11.5,-,0.18,Rain,Light Rain,180,2013-09-23 22:34:00
6:42 PM,79.0,77.0,94,29.91,6.0,South,10.4,-,0.19,Rain,Light Rain,170,2013-09-23 22:42:00
6:53 PM,79.0,77.0,94,29.91,8.0,SSE,13.8,-,0.19,Rain,Light Rain,150,2013-09-23 22:53:00
6:57 PM,79.0,77.0,94,29.90,7.0,SSE,12.7,-,0.01,Rain,Light Rain,150,2013-09-23 22:57:00
7:04 PM,79.0,77.0,94,29.90,7.0,SSE,16.1,-,0.01,Rain,Light Rain,150,2013-09-23 23:04:00
7:53 PM,79.0,77.0,94,29.89,10.0,SSE,18.4,-,0.01,Rain,Light Rain,160,2013-09-23 23:53:00
8:01 PM,79.0,77.0,94,29.89,10.0,SSE,18.4,-,0.01,Rain,Light Rain,160,2013-09-24 00:01:00
8:09 PM,79.0,77.0,94,29.88,10.0,South,18.4,-,0.01,Rain,Light Rain,170,2013-09-24 00:09:00
8:53 PM,78.1,77.0,96,29.91,10.0,South,16.1,-,0.01,,Partly Cloudy,180,2013-09-24 00:53:00
9:27 PM,78.1,75.9,93,29.93,10.0,South,15.0,-,N/A,,Mostly Cloudy,170,2013-09-24 01:27:00
9:49 PM,78.8,77.0,94,29.92,10.0,South,17.3,-,N/A,,Mostly Cloudy,170,2013-09-24 01:49:00
9:53 PM,79.0,77.0,94,29.92,10.0,South,19.6,-,N/A,,Mostly Cloudy,170,2013-09-24 01:53:00
10:04 PM,79.0,77.0,94,29.93,10.0,South,17.3,-,N/A,,Scattered Clouds,180,2013-09-24 02:04:00
10:14 PM,79.0,77.0,94,29.93,10.0,South,18.4,-,N/A,,Mostly Cloudy,170,2013-09-24 02:14:00
10:24 PM,79.0,77.0,94,29.93,10.0,South,19.6,-,N/A,,Mostly Cloudy,180,2013-09-24 02:24:00
10:39 PM,79.0,77.0,94,29.93,10.0,South,16.1,-,N/A,,Overcast,180,2013-09-24 02:39:00
10:53 PM,79.0,77.0,94,29.94,10.0,South,16.1,-,N/A,,Overcast,190,2013-09-24 02:53:00
11:51 PM,78.8,75.2,89,29.93,10.0,SSE,13.8,-,N/A,,Overcast,160,2013-09-24 03:51:00
11:53 PM,78.1,75.9,93,29.93,10.0,SSE,15.0,-,N/A,,Overcast,160,2013-09-24 03:53:00